Lapse_Rate
5.3 5.1 5.4 5.3 5.4 5.4 5.5 5.8 5.8 6.0 6.1 6.4 6.4 6.3 6.1 6.0 5.8 5.7 5.7 5.7 5.8 5.8 5.8 5.9 5.9 5.8 5.9 5.8 5.7 5.7 5.8 6.0 6.2 6.2 6.1 5.9 5.9 6.0 5.9 5.9 5.9 5.8 5.8
5.5 5.6 5.4 5.6 5.8 5.8 5.8 5.8 5.8 6.0 6.1 6.3 6.3 6.2 5.9 5.7 5.6 5.7 5.7 5.8 6.0 6.1 6.1 6.0 5.9 6.0 5.9 5.8 5.9 6.0 6.0 6.2 6.0 5.9 6.0 6.2 6.1 6.0 6.0 5.9 5.9 5.9 5.8
5.6 5.6 5.5 5.6 5.8 5.9 6.0 5.9 6.1 6.1 6.3 6.3 6.1 6.1 5.8 5.8 5.8 5.8 5.9 5.9 6.1 6.2 6.2 6.2 6.0 5.9 5.9 6.0 5.9 6.1 6.0 6.0 6.0 6.0 6.0 6.0 6.0 6.0 5.9 6.0 5.9 5.9 5.8
5.7 5.7 5.7 5.8 5.8 6.0 6.1 6.1 6.2 6.1 6.3 6.4 6.4 6.1 5.9 5.9 5.9 6.0 6.2 6.2 6.3 6.2 6.2 6.2 6.1 5.9 5.8 6.0 6.0 6.0 5.9 6.0 6.1 6.0 5.9 6.0 6.2 6.1 6.0 6.0 5.9 5.8 5.8
5.8 5.8 5.8 5.9 6.0 6.1 6.3 6.3 6.2 6.1 6.2 6.2 6.2 6.1 6.1 6.2 6.3 6.4 6.3 6.2 6.3 6.2 6.1 6.0 5.8 5.8 5.8 6.0 6.0 6.0 6.1 6.1 6.1 6.1 6.0 6.1 6.0 6.0 6.0 5.9 5.9 5.7 5.7
5.6 5.7 5.9 6.0 6.0 6.2 6.3 6.3 6.2 6.1 6.1 6.0 6.2 6.1 6.0 6.2 6.4 6.4 6.4 6.3 6.5 6.2 6.2 6.1 5.8 5.9 6.0 5.9 6.0 6.1 6.2 6.2 6.1 6.0 5.9 6.0 5.9 5.9 5.9 5.9 6.0 5.9 5.9
5.7 5.9 6.2 6.2 6.3 6.3 6.3 6.2 6.1 6.1 6.0 6.1 6.1 6.1 6.1 6.1 6.2 6.4 6.4 6.4 6.4 6.2 6.2 6.2 6.1 6.1 6.3 6.2 6.1 6.0 6.2 6.2 6.1 5.9 5.8 5.9 5.9 5.9 6.0 6.1 6.1 6.0 6.0
5.9 6.2 6.3 6.3 6.3 6.3 6.2 6.2 6.1 6.1 6.1 6.1 6.1 6.2 6.2 6.3 6.6 6.8 6.7 6.7 6.5 6.4 6.2 6.3 6.2 6.4 6.4 6.3 6.2 6.2 6.4 6.4 6.1 5.8 5.8 5.9 5.9 6.2 6.2 6.2 6.2 6.2 6.2
6.1 6.1 6.4 6.5 6.5 6.3 6.3 6.4 6.3 6.2 6.2 6.3 6.3 6.3 6.3 6.4 6.7 6.8 6.7 6.8 6.6 6.6 6.6 6.6 6.5 6.6 6.5 6.5 6.4 6.3 6.4 6.2 6.0 5.9 6.0 6.0 6.2 6.4 6.3 6.3 6.3 6.4 6.4
6.1 6.2 6.3 6.6 6.6 6.6 6.5 6.3 6.2 6.1 6.2 6.4 6.4 6.3 6.5 6.6 6.7 6.7 6.6 6.6 6.7 6.7 6.6 6.5 6.3 6.3 6.5 6.5 6.4 6.5 6.4 6.2 6.1 6.1 6.1 6.2 6.4 6.6 6.5 6.5 6.5 6.6 6.7
6.0 6.2 6.2 6.4 6.3 6.4 6.3 6.2 6.1 6.3 6.1 6.3 6.5 6.6 6.7 6.7 6.6 6.8 6.9 6.8 6.7 6.5 6.3 6.3 6.2 6.3 6.3 6.4 6.4 6.4 6.3 6.3 6.2 6.2 6.4 6.5 6.6 6.7 6.7 6.8 6.9 6.9 7.0
6.0 6.1 6.1 6.2 6.2 6.2 6.2 6.3 6.3 6.3 6.3 6.4 6.3 6.5 6.6 6.6 6.6 6.7 6.7 6.5 6.7 6.4 6.4 6.4 6.4 6.4 6.2 6.2 6.3 6.4 6.4 6.4 6.3 6.4 6.4 6.6 6.9 6.9 7.0 7.1 7.0 7.0 7.1
5.9 5.9 6.0 6.1 6.3 6.3 6.2 6.3 6.2 6.3 5.9 6.2 6.0 6.2 6.4 6.5 6.6 6.6 6.5 6.2 6.4 6.3 6.2 6.3 6.2 6.4 6.4 6.3 6.5 6.6 6.6 6.6 6.5 6.5 6.6 6.7 7.0 7.1 7.2 7.2 7.1 7.2 7.0
5.8 5.9 5.9 6.1 6.2 6.1 6.1 6.1 6.3 5.8 5.9 5.8 5.8 5.9 6.0 6.1 6.0 6.1 6.1 6.2 6.3 6.2 6.3 6.5 6.6 6.6 6.3 6.3 6.4 6.6 6.9 6.9 6.7 6.4 6.6 6.9 7.3 7.4 7.3 7.2 7.1 7.0 6.9
5.6 5.8 5.8 5.9 6.1 5.8 6.1 5.9 6.0 5.7 5.7 5.8 5.8 5.8 6.0 5.9 5.9 5.8 6.0 6.0 6.0 6.2 6.2 6.0 6.4 6.6 6.6 6.6 6.7 7.0 7.3 7.3 6.7 6.7 6.8 7.1 7.0 7.3 7.0 6.9 6.9 6.9 6.8
5.5 5.5 5.7 5.8 6.0 5.6 5.8 6.0 6.1 5.5 5.6 5.5 5.5 5.6 5.7 5.8 6.0 5.7 6.1 6.1 5.9 5.9 5.8 6.0 6.3 6.3 6.4 6.6 6.7 7.1 7.4 7.6 7.4 7.1 7.2 7.1 7.0 6.9 6.7 6.7 6.6 6.6 6.5
5.9 5.5 5.6 5.6 5.6 5.7 5.6 5.7 5.8 5.5 5.8 5.6 5.2 5.4 5.4 5.4 5.5 5.7 6.0 6.0 5.9 5.9 5.7 5.9 6.0 5.9 6.3 6.6 6.9 7.1 7.0 7.1 7.2 7.2 7.3 7.0 6.7 6.7 6.6 6.7 6.6 6.3 6.1
5.6 5.7 5.8 5.7 5.6 5.6 5.6 5.8 5.5 5.5 5.8 5.6 5.5 5.5 5.3 5.7 5.9 5.8 5.9 5.7 5.9 6.0 6.0 6.2 6.2 6.2 6.5 6.5 6.7 6.9 6.9 6.7 6.7 6.6 6.7 6.4 6.3 6.6 6.8 7.1 6.9 6.7 6.8
5.7 5.8 6.2 6.1 5.7 5.5 5.5 5.6 5.5 5.6 5.7 5.7 5.7 5.6 5.3 5.6 6.0 5.9 5.6 5.9 6.0 6.3 6.2 6.3 6.4 6.5 6.4 6.4 6.5 6.5 6.7 6.8 6.3 5.7 5.9 6.7 7.0 7.3 7.2 7.1 7.1 6.8 6.6
5.6 5.8 5.9 6.0 5.8 5.5 5.4 5.7 5.7 5.6 5.6 5.5 5.6 5.7 5.7 5.7 6.0 6.0 6.0 5.9 6.2 6.4 6.5 6.5 6.6 6.6 6.6 6.9 7.0 6.9 6.7 5.9 6.1 6.3 6.5 7.0 7.2 7.3 7.2 7.1 7.1 7.0 6.8
5.6 5.8 5.8 6.1 6.3 6.0 5.6 5.6 5.5 5.4 5.5 5.6 5.8 5.8 5.8 5.7 6.1 6.3 6.3 6.2 6.1 6.5 6.5 6.6 6.6 6.8 6.8 6.9 7.0 7.1 7.2 6.9 6.9 7.0 7.1 7.2 7.5 7.5 7.3 7.4 7.3 7.1 6.6
5.9 5.8 6.0 6.2 6.0 6.0 5.9 5.6 5.4 5.4 5.7 5.8 5.8 5.7 6.0 6.0 5.6 5.7 5.7 5.7 5.7 6.1 6.2 6.4 6.7 7.0 6.8 6.9 6.9 6.9 7.0 7.1 7.3 7.5 7.5 7.6 7.7 7.6 7.5 7.4 7.2 7.4 7.4
5.6 5.9 5.9 6.1 5.9 6.1 6.0 5.8 5.5 5.5 5.8 5.8 5.7 5.8 6.1 6.1 6.1 6.1 5.9 5.6 5.7 5.8 6.0 6.2 6.3 6.8 6.7 6.7 6.9 7.0 7.0 7.2 7.3 7.4 7.6 7.7 7.7 7.4 7.2 7.3 7.3 7.2 7.3
5.0 5.4 6.0 6.1 5.9 6.5 6.3 5.8 5.6 5.7 5.9 5.7 5.6 5.7 5.9 5.8 6.0 6.2 6.1 6.0 6.0 6.1 5.8 5.9 6.1 6.5 6.4 6.4 6.8 6.8 6.7 6.9 7.1 7.0 7.2 7.3 7.2 7.2 7.1 7.2 7.0 7.0 7.1
4.9 5.3 5.9 6.1 6.2 6.3 6.2 6.0 6.0 5.8 5.7 5.7 5.7 5.9 6.0 5.8 5.9 5.9 6.0 6.2 6.2 6.2 6.1 6.1 6.1 6.1 6.4 6.5 6.6 6.6 6.6 6.5 6.7 6.9 7.0 7.1 7.0 6.8 6.9 7.0 6.8 6.8 6.7
5.0 5.1 5.7 6.2 6.3 6.2 6.4 6.2 6.1 5.8 5.9 5.7 5.8 6.0 6.0 6.0 5.9 5.8 5.6 5.8 5.9 6.0 5.9 6.1 6.1 6.1 6.2 6.2 6.6 6.5 6.4 6.6 6.7 6.4 6.5 6.6 6.4 6.4 6.7 6.6 6.8 6.5 6.6
Wind_Speed
6 6 6 3 7 9 12 14 16 16 16 18 18 17 17 16 18 16 14 14 14 15 15 14 16 15 15 15 15 14 16 17 16 15 14 13 14 14 14 13 13 11 13
5 7 5 6 8 10 12 14 16 15 17 17 15 17 15 15 15 15 14 13 14 14 15 14 15 15 14 14 15 15 16 18 16 16 14 15 13 13 13 12 12 12 11
5 7 6 8 11 11 12 12 15 15 16 16 16 15 14 13 13 14 14 12 12 14 14 13 13 14 14 13 13 15 15 15 15 14 14 12 13 13 12 12 11 11 10
8 9 7 9 10 11 12 13 14 15 16 14 14 13 13 13 13 12 13 12 11 11 12 12 11 11 11 10 7 7 10 14 14 11 9 9 10 12 11 11 12 10 7
7 10 8 10 10 10 11 13 14 14 15 14 13 13 13 14 13 12 11 12 12 10 10 9 9 10 9 8 9 8 8 10 12 11 12 10 7 10 10 9 9 8 7
6 10 10 11 11 10 11 11 13 13 12 14 14 12 11 11 10 11 10 10 10 9 8 7 7 8 8 10 12 14 12 11 10 11 10 8 9 10 9 8 7 7 7
6 10 12 12 12 11 11 12 13 13 13 14 13 13 11 11 10 9 8 7 6 6 7 6 7 6 7 10 8 12 10 9 9 9 8 7 6 7 7 7 6 5 4
8 9 11 11 12 11 11 12 13 14 13 12 12 10 11 10 10 10 9 7 6 6 5 5 5 5 8 10 10 10 9 8 7 7 7 5 5 5 6 5 4 3 2
7 7 8 10 12 11 11 12 12 13 13 12 11 10 9 10 10 9 8 7 6 6 6 6 4 5 7 8 8 5 6 8 7 5 4 4 5 4 4 2 2 1 2
5 5 6 8 10 9 11 12 11 12 12 12 10 9 8 8 8 8 6 5 5 5 5 5 4 4 5 6 6 7 5 6 5 3 3 2 3 2 1 0 2 3 4
4 4 6 6 9 8 9 11 12 12 11 11 9 8 7 5 6 6 3 4 5 6 6 6 4 5 5 5 4 4 4 1 2 2 3 3 2 1 1 2 4 5 6
6 4 4 6 7 9 6 11 9 10 10 8 5 4 5 3 3 3 4 4 5 7 8 10 9 9 8 5 5 5 3 2 4 4 4 5 3 2 3 4 6 7 8
8 5 5 6 8 7 6 9 7 7 9 6 5 4 4 2 3 4 3 4 9 10 10 11 11 11 8 6 5 4 4 3 7 6 6 6 5 5 5 6 7 8 9
7 6 6 7 6 6 8 6 7 8 7 4 4 3 4 2 2 3 2 6 9 9 8 7 8 11 15 14 11 5 1 8 7 6 8 10 10 8 8 7 8 8 9
8 6 6 6 6 7 7 7 6 6 7 7 7 8 8 3 2 1 4 4 4 7 6 6 7 8 9 10 9 8 7 7 7 8 11 12 11 10 8 8 8 9 10
6 8 6 7 8 10 5 7 7 7 9 9 7 9 7 6 4 0 3 4 4 5 9 10 7 5 4 5 5 2 6 11 9 9 10 9 11 10 9 9 9 10 11
8 9 9 8 9 7 6 7 8 9 11 8 10 9 6 6 3 1 1 4 6 7 8 7 8 4 3 1 2 3 3 6 8 9 9 9 7 10 11 11 12 14 15
7 8 7 7 6 5 6 8 7 10 10 8 8 6 5 5 3 2 2 2 6 6 6 5 2 1 3 2 1 0 1 5 6 7 7 7 6 6 9 10 11 12 13
8 8 8 6 7 8 7 8 6 8 7 10 9 6 5 6 6 4 3 3 5 6 4 2 1 1 0 1 2 2 2 2 3 7 7 6 6 6 6 6 7 7 9
7 7 7 5 7 7 5 5 2 3 2 4 4 5 3 5 5 7 6 3 3 2 3 4 2 2 2 2 2 3 2 4 2 2 4 8 9 5 5 5 6 9 7
7 7 8 7 6 5 2 3 2 3 1 1 5 6 4 5 4 5 8 4 3 1 3 3 1 3 4 2 2 3 5 6 5 3 5 5 5 3 5 6 5 10 7
11 10 8 8 8 5 3 2 3 3 1 1 2 3 5 7 4 6 5 3 3 2 5 5 5 2 4 4 3 2 2 3 4 4 3 2 2 0 3 3 5 4 5
12 11 10 9 8 6 5 3 3 3 3 2 1 0 1 4 5 6 4 4 4 2 3 2 3 4 2 4 6 3 2 2 1 3 4 3 4 3 4 3 3 7 9
14 9 8 7 8 7 8 5 5 4 4 3 2 2 1 1 2 3 6 5 4 2 3 1 2 2 2 2 2 4 4 2 2 2 2 3 5 5 5 5 5 10 13
12 11 9 7 7 6 7 7 5 4 2 2 2 2 2 1 3 2 3 5 3 3 2 3 2 3 2 2 1 1 3 2 3 2 2 4 3 5 4 4 5 5 13
11 8 7 10 7 7 7 8 8 8 6 4 3 3 3 2 2 2 3 6 4 2 2 2 2 1 3 3 1 2 2 2 2 2 1 2 3 4 3 4 4 4 6
Wind_Direction
243 222 208 154 110 111 104 93 96 99 99 103 105 103 109 108 108 108 110 108 108 106 104 103 102 101 97 96 95 101 104 105 103 105 104 102 102 103 103 102 99 101 103
125 172 163 119 105 96 94 95 99 99 104 104 114 114 115 110 113 114 116 111 106 104 100 94 93 98 99 98 100 100 95 98 101 96 105 108 102 102 103 102 98 100 103
130 165 153 139 121 113 107 105 104 109 111 113 117 115 111 111 112 114 110 103 100 102 104 103 104 105 103 99 96 89 96 97 94 93 89 85 94 103 98 99 103 103 93
143 153 154 134 115 114 118 112 112 111 115 109 109 114 120 117 118 116 105 108 105 95 101 107 106 100 97 90 103 121 94 100 98 91 77 80 92 92 93 85 87 86 93
132 151 164 132 130 125 115 118 116 121 121 120 117 117 121 121 119 118 114 108 99 101 107 108 105 97 84 71 68 145 125 115 103 92 82 75 88 108 102 93 84 74 70
140 161 160 148 139 130 125 121 124 123 127 123 120 119 117 117 111 116 107 108 102 109 111 117 107 89 70 67 75 115 114 113 100 95 86 78 76 88 93 86 82 73 71
144 167 165 153 142 140 139 134 130 130 126 130 130 132 124 129 134 127 121 110 108 112 99 113 108 96 74 59 86 111 113 111 113 100 92 87 94 100 90 83 74 62 50
143 152 159 150 141 145 140 133 135 140 141 133 126 129 130 129 114 113 108 100 86 79 78 85 87 85 67 54 81 98 109 116 110 96 97 88 99 93 89 82 70 51 21
137 138 138 151 146 143 142 140 143 141 138 142 141 139 134 125 109 105 102 101 97 86 71 55 44 48 59 53 55 67 125 128 126 109 99 90 90 88 81 75 57 352 324
145 141 138 149 140 140 146 148 140 142 149 146 148 141 125 122 115 107 79 80 80 77 75 61 23 26 57 59 55 53 129 137 136 138 119 147 120 114 92 339 302 306 298
152 142 155 151 139 149 148 148 142 146 148 148 152 153 144 113 103 101 90 65 46 38 34 34 0 352 4 20 18 14 36 147 184 172 175 198 190 167 261 286 296 296 296
167 172 179 149 152 146 144 148 148 150 143 146 155 119 79 84 105 69 67 48 40 18 7 1 342 348 334 339 332 334 316 202 196 203 214 209 223 248 272 284 288 292 300
173 170 179 154 169 153 148 157 146 121 117 135 147 129 114 131 98 67 32 15 15 11 351 348 336 348 333 301 291 299 303 169 178 205 229 218 229 244 254 263 274 284 296
167 178 167 163 169 179 157 148 131 128 137 149 163 183 139 130 80 58 25 9 11 354 339 345 337 315 310 305 302 285 346 157 176 208 233 222 224 237 249 266 281 295 305
172 162 171 162 174 180 165 154 151 162 167 182 199 203 165 184 268 13 43 50 29 357 341 313 295 288 288 297 293 263 211 185 186 212 222 228 230 238 255 273 290 301 307
165 168 167 181 185 183 164 164 173 173 182 172 180 180 184 202 204 164 342 344 329 314 323 322 290 260 271 326 323 271 188 186 194 206 225 238 246 258 269 281 288 292 301
175 162 174 189 192 183 166 164 169 169 161 170 176 171 187 163 172 139 348 326 317 340 333 317 296 291 4 321 39 357 163 183 194 200 217 233 246 257 265 282 303 319 315
153 160 169 184 174 166 163 167 179 183 163 174 187 178 172 130 123 120 253 319 349 350 339 336 312 291 143 112 178 154 185 219 234 231 224 243 267 321 357 353 345 333 318
163 161 167 160 151 140 135 145 159 182 171 166 180 175 166 131 149 156 106 83 40 18 349 332 356 35 231 287 312 323 232 270 324 347 309 313 321 317 315 326 327 318 315
157 169 155 154 149 128 119 124 149 151 183 166 192 201 185 147 167 121 124 102 39 359 14 10 355 354 155 227 264 260 283 41 45 1 29 57 58 55 67 37 37 42 20
159 164 164 157 162 129 115 134 121 160 191 196 217 211 176 163 153 88 108 110 81 29 51 7 323 34 46 0 56 20 50 35 37 25 75 94 103 113 87 89 90 73 66
179 176 169 173 162 165 145 164 143 143 161 137 166 208 207 171 147 115 105 128 86 67 40 30 16 17 35 9 117 95 69 339 18 15 7 48 355 278 108 82 34 50 85
190 184 176 173 167 160 150 111 76 60 58 85 49 280 295 212 165 144 129 128 92 78 66 25 14 56 113 17 46 124 104 204 311 326 348 340 309 304 307 356 337 337 356
195 175 168 168 165 168 164 141 147 155 165 193 163 157 94 156 315 236 154 128 115 107 88 44 18 43 85 111 26 53 77 127 142 315 295 315 292 299 305 291 302 314 323
183 182 168 163 164 164 154 152 149 149 155 150 153 158 151 104 97 234 256 160 168 148 129 109 66 64 66 91 103 124 50 64 101 159 272 301 325 268 268 267 286 284 307
180 177 164 165 182 169 154 153 159 165 169 161 189 194 184 155 115 101 223 190 188 184 152 175 137 92 109 115 147 162 159 183 205 153 113 274 253 292 277 306 301 265 326